Theta_e
307 307 307 307 307 307 307 307 306 306 306 306 307 307 307 308 307 307 307 307 307 307 308 308 308 308 309 309 309 310 310 311 312 313 315 316 315 316 317 314 313 313 313 314 314 314 315 315 314 314 317 319 317 319 318 320 328 335 335 326 320 322 326 327 327 325 318 318 322 320 318 316 318 320 317 314 316 322 319 316 315 313 313 313 314 312 312 313
307 307 308 307 307 307 306 306 306 307 307 307 308 308 308 309 308 308 308 308 308 308 308 308 309 309 309 309 310 310 311 312 313 314 316 318 317 317 318 314 313 313 313 314 313 314 317 317 314 315 320 319 317 320 321 318 324 339 333 319 326 335 331 327 326 323 318 318 320 320 318 316 317 317 315 315 320 322 319 317 315 314 314 313 312 312 312 313
306 306 307 308 308 308 307 306 307 308 308 308 309 309 310 309 309 310 311 311 310 309 309 309 309 309 309 310 311 311 312 313 315 316 317 319 318 317 316 313 313 313 313 314 314 314 316 316 313 317 322 319 318 322 324 321 320 331 328 321 336 339 329 327 325 321 319 317 318 320 317 316 318 316 315 315 318 320 318 317 316 315 316 314 312 311 311 313
306 306 307 308 309 309 309 308 308 309 309 309 309 310 311 310 310 310 312 313 312 311 311 311 311 311 312 312 312 313 313 314 316 317 317 318 318 317 315 313 313 313 313 314 314 314 315 314 313 318 321 318 321 321 323 324 319 320 323 328 335 326 321 325 323 321 321 317 317 318 317 317 317 316 316 315 317 319 317 316 316 315 315 314 312 309 309 310
306 307 307 308 309 309 309 309 310 310 310 310 311 311 311 311 310 311 312 314 314 314 313 313 313 314 314 314 315 314 315 317 316 314 316 317 316 315 314 313 312 313 314 315 316 315 315 313 313 319 320 317 320 319 320 324 319 319 324 330 330 321 318 322 324 321 318 317 316 317 317 316 316 316 316 316 317 318 317 316 316 314 313 313 311 308 306 305
307 307 308 308 309 310 310 310 310 311 311 312 312 312 312 312 312 313 313 315 316 315 315 315 315 315 315 315 317 316 314 317 315 314 315 315 314 314 314 313 312 313 314 316 316 314 315 314 314 319 320 317 317 316 316 318 317 320 325 326 327 321 318 321 322 320 316 315 317 317 316 315 316 317 317 317 317 318 317 315 315 312 308 307 306 305 306 306
308 308 308 309 310 311 311 311 311 312 313 313 313 313 313 314 314 314 314 315 315 315 315 314 315 315 315 315 318 319 317 316 316 317 317 314 313 314 314 313 313 313 313 315 315 315 317 316 316 319 321 318 316 316 316 316 316 319 324 324 324 320 319 323 322 321 318 315 316 316 313 314 316 316 316 316 316 315 313 311 309 306 304 305 305 305 306 306
311 310 310 309 310 312 311 312 312 313 314 314 314 314 315 315 315 315 315 315 315 315 315 315 315 313 314 315 318 323 323 320 317 318 318 316 315 313 314 314 313 312 312 313 314 315 316 315 316 316 318 317 315 316 314 314 317 320 324 322 320 318 321 323 320 320 318 315 314 313 314 314 315 315 314 315 315 313 312 310 307 304 305 305 305 305 304 303
313 312 311 311 311 312 312 313 313 314 315 315 316 316 317 316 317 317 316 317 317 317 316 316 315 313 313 314 318 324 324 320 319 319 319 319 316 314 314 314 313 312 312 314 314 313 314 317 317 315 317 317 315 316 314 315 318 321 323 320 317 317 318 318 317 318 316 315 313 312 315 314 312 313 314 318 315 313 313 309 307 309 308 305 304 303 302 302
314 313 312 313 312 312 314 314 315 315 316 317 318 318 318 318 319 319 318 319 318 317 316 315 315 313 313 314 319 323 321 320 321 320 319 318 316 314 314 314 313 313 313 315 314 313 314 317 315 313 317 318 314 314 314 315 316 318 319 317 315 315 315 315 317 316 313 314 313 313 316 313 311 312 318 321 313 311 313 307 305 309 307 303 303 302 301 301
315 314 312 312 312 313 315 316 316 317 318 319 319 320 320 320 320 320 320 320 319 318 316 315 313 313 313 315 321 322 318 320 320 320 320 316 315 314 314 314 313 313 314 315 314 314 315 314 312 312 316 316 313 314 315 315 314 314 315 315 316 316 315 315 316 315 312 313 314 314 315 314 310 312 320 319 310 311 312 307 306 307 305 303 302 301 300 300
315 314 313 312 312 314 315 316 317 318 319 320 321 321 321 321 321 321 321 320 319 317 315 314 312 312 313 315 319 319 317 319 319 319 319 316 314 314 314 315 314 314 314 314 315 316 315 314 313 315 317 315 315 315 314 314 312 314 314 314 318 319 317 315 315 314 313 314 315 314 315 317 315 315 321 316 310 311 309 306 306 305 304 303 301 300 300 299
316 315 314 312 313 314 316 316 318 319 321 321 321 321 321 322 321 321 321 319 318 315 314 312 311 312 313 315 316 315 316 319 318 318 317 316 315 315 316 317 316 315 315 315 315 315 315 315 314 316 316 317 319 314 313 314 312 313 312 313 317 319 321 317 311 313 313 314 316 313 316 324 324 321 318 312 310 312 310 306 305 305 303 302 301 300 300 299
317 316 314 313 315 316 316 317 319 320 321 322 322 322 322 322 321 321 320 318 316 314 312 311 311 312 314 316 315 313 315 317 318 318 316 316 316 316 317 317 317 316 316 316 315 314 315 314 313 314 313 316 316 311 316 322 318 314 311 316 319 317 327 324 312 314 315 313 314 312 318 325 325 322 314 308 311 314 312 307 304 305 303 302 301 300 300 299
318 317 314 315 317 316 317 319 320 321 321 323 323 323 323 321 321 321 319 317 314 312 311 310 312 313 314 316 314 313 315 315 318 318 317 317 317 317 317 316 316 316 316 316 315 314 313 313 314 316 314 312 315 317 322 325 326 323 313 323 327 317 326 328 313 315 316 312 311 312 320 320 320 322 312 307 312 315 313 307 304 304 302 301 301 299 299 298
319 316 314 316 317 316 318 320 321 321 321 322 322 323 322 322 321 320 317 313 311 311 311 313 314 313 314 316 313 313 315 315 318 317 317 318 316 316 316 316 315 314 316 314 314 313 312 315 314 314 315 312 319 330 330 324 328 330 318 323 332 320 321 323 316 317 316 312 311 311 319 318 319 323 314 308 310 316 316 308 303 303 302 300 300 298 298 298
318 315 314 317 316 317 319 320 321 321 321 322 322 323 322 321 321 318 314 313 313 314 313 314 315 313 314 314 314 314 314 314 316 317 317 317 316 315 314 314 312 311 313 312 313 312 311 315 313 312 316 315 319 326 325 321 325 330 321 318 326 322 319 321 319 318 315 314 313 311 315 316 318 320 315 308 309 316 316 307 303 302 301 300 299 298 298 297
317 315 315 317 316 318 320 321 322 321 322 322 322 322 321 320 318 315 314 314 314 315 315 313 313 317 318 314 315 316 314 313 316 316 316 317 315 314 313 312 309 309 312 312 312 312 313 316 317 318 317 314 316 317 319 322 326 331 325 320 323 321 318 320 319 319 317 317 316 315 316 317 318 317 313 308 308 314 310 303 303 301 300 300 298 298 298 297
317 315 316 316 317 319 321 321 322 321 322 322 322 322 320 318 315 314 313 314 316 319 320 316 315 322 321 315 315 315 314 314 315 315 315 316 314 313 313 310 312 313 314 314 312 313 318 319 319 319 317 315 316 316 317 321 325 328 326 325 327 323 320 319 318 319 316 315 317 317 316 318 318 315 312 308 307 308 305 302 302 301 300 299 298 298 297 297
317 315 316 317 318 320 321 321 321 321 321 322 322 320 321 323 323 321 317 317 320 320 321 320 317 321 318 315 316 314 314 314 314 314 314 314 313 312 312 311 316 318 317 320 316 313 318 319 318 319 318 318 315 313 314 316 317 319 319 321 322 321 320 317 317 319 314 314 320 319 317 319 319 315 310 308 309 308 304 303 301 300 300 299 298 298 297 297
317 315 315 316 318 320 321 321 321 321 322 322 321 320 323 327 327 326 324 323 320 314 318 319 314 316 315 314 315 314 314 314 312 313 313 314 313 312 314 313 316 318 318 323 318 312 315 318 319 318 317 316 315 313 312 313 313 314 316 317 318 319 317 315 315 316 313 314 320 318 316 321 320 315 309 307 311 308 304 303 301 300 300 299 299 298 297 297
316 315 315 315 318 321 321 321 321 322 322 321 321 319 318 319 319 318 320 327 324 315 317 317 313 316 315 312 314 313 316 317 315 314 313 313 313 312 316 317 318 320 318 318 316 314 315 317 318 316 314 313 315 315 312 313 314 315 316 316 318 319 318 319 318 315 313 315 322 320 317 320 319 312 307 305 306 304 301 302 301 300 299 299 298 298 297 297
316 314 314 317 320 321 321 322 322 321 322 321 321 319 316 316 317 315 317 326 328 320 320 321 319 320 319 315 314 313 316 319 319 317 313 313 314 315 317 317 318 321 319 316 318 319 319 320 317 313 312 313 315 317 316 315 317 319 319 318 321 319 318 324 323 317 315 315 319 319 316 320 317 309 306 303 302 302 300 300 300 299 299 298 298 297 296 296
315 314 316 319 321 322 321 321 321 321 321 321 321 320 317 318 317 315 318 323 325 323 321 320 319 323 323 318 314 315 316 319 321 318 313 313 315 314 317 318 318 320 318 316 318 319 320 321 319 316 315 314 315 317 318 318 319 323 322 319 321 320 319 322 321 320 321 317 316 315 318 326 322 315 310 304 302 302 300 300 300 299 299 298 297 296 296 296
315 317 318 320 321 322 321 321 321 320 321 321 322 320 318 319 316 314 320 324 326 325 320 315 317 322 320 315 314 315 317 319 320 317 312 312 315 315 315 316 318 320 318 315 315 317 319 317 318 320 318 315 316 318 320 321 322 325 325 320 320 321 320 321 320 319 323 324 318 313 323 336 330 322 313 305 304 303 301 301 300 299 299 298 298 297 296 296
317 319 320 320 321 321 320 321 321 321 322 321 321 320 318 318 316 314 322 329 330 328 323 318 319 320 316 314 313 315 321 321 314 312 312 312 313 315 316 315 316 319 318 316 316 318 319 316 316 321 321 318 318 320 321 321 322 324 324 321 319 318 318 321 321 320 325 326 316 311 319 331 332 328 316 306 306 304 302 302 300 300 299 298 298 297 297 296
318 321 321 321 321 321 321 322 322 321 323 323 321 319 318 318 315 313 322 331 330 327 323 319 317 317 314 311 312 319 327 322 312 310 312 312 312 312 317 318 316 316 316 317 321 321 320 318 317 318 322 321 320 322 322 320 324 326 322 321 322 318 320 323 320 320 323 322 319 319 317 318 325 326 313 306 308 305 302 302 300 300 299 298 298 298 297 296
318 320 321 321 322 322 322 322 321 320 322 323 320 319 318 317 315 316 327 336 332 324 321 317 313 313 311 309 312 319 319 316 317 314 309 310 312 312 317 320 319 318 316 319 327 323 316 318 320 318 320 321 321 324 322 319 323 325 318 319 322 320 324 326 321 321 319 315 323 327 318 315 323 322 310 306 311 309 305 303 301 300 299 298 298 297 297 296
319 320 320 321 322 322 322 322 321 321 322 322 320 319 318 315 315 321 330 334 329 321 318 315 311 310 311 310 312 315 311 311 317 314 308 310 311 312 316 319 321 319 313 316 326 322 315 314 318 320 321 322 323 320 318 320 319 318 314 317 320 320 323 325 323 323 318 316 324 326 318 317 324 325 314 308 313 313 307 303 301 300 300 299 298 297 296 296
318 320 320 321 322 322 322 322 322 322 322 321 320 318 316 317 320 328 333 332 328 321 314 313 312 312 314 315 314 312 310 312 313 311 311 313 312 312 312 313 317 319 316 318 322 320 316 311 312 317 319 321 321 314 312 317 315 313 316 321 324 323 323 324 324 321 317 322 326 324 319 316 321 328 320 312 312 311 307 304 301 300 300 299 298 297 296 296
317 319 320 320 321 321 321 321 322 323 321 320 320 316 317 322 325 334 335 328 327 322 314 314 313 312 316 318 318 313 311 312 312 313 314 313 314 315 312 312 316 322 322 321 321 318 316 314 314 316 315 316 319 315 312 314 314 315 321 324 325 326 323 323 325 321 320 327 326 319 316 314 319 326 320 313 309 306 306 305 301 300 300 299 299 298 297 296
316 319 320 319 320 320 321 322 322 323 321 320 319 319 324 327 328 335 331 324 329 325 319 318 313 312 316 316 317 314 313 314 312 315 318 316 317 316 316 317 319 324 325 322 323 320 318 319 317 315 313 315 322 321 315 316 317 319 322 324 325 325 322 324 326 322 322 324 319 315 315 314 319 321 317 315 309 302 304 303 300 300 299 299 299 298 297 296
315 317 318 319 319 320 321 322 322 323 321 319 320 323 327 330 331 333 327 327 332 323 318 321 316 315 316 315 316 313 313 315 312 314 316 316 317 317 316 318 318 324 325 320 320 320 321 321 316 314 314 315 320 321 318 319 318 317 320 324 325 324 324 326 324 318 320 321 314 312 315 317 321 318 312 310 305 299 300 301 300 299 298 298 299 298 297 296
316 317 318 318 319 320 321 321 321 322 320 318 323 325 327 330 332 330 327 329 330 321 318 320 316 315 316 316 319 315 313 315 312 313 315 313 316 318 318 316 314 320 323 318 318 320 323 324 320 318 317 316 316 317 323 324 317 315 319 320 322 326 327 326 324 320 321 322 314 310 314 323 324 314 304 302 300 298 299 300 299 299 298 298 298 297 297 296
317 317 318 318 319 319 320 320 321 322 320 320 325 327 328 331 331 330 329 328 326 322 319 318 315 315 316 317 318 315 315 317 313 313 316 315 318 321 322 318 314 318 322 320 319 318 319 325 324 316 313 314 315 316 320 321 316 314 315 316 319 323 322 320 321 320 318 320 317 314 319 324 318 307 300 300 299 298 299 299 299 299 298 298 297 297 297 296
319 318 318 319 319 319 320 321 321 320 320 322 326 328 328 330 330 330 328 325 324 322 318 318 318 318 318 318 318 314 314 318 316 314 315 316 318 319 322 322 316 315 318 322 323 319 319 324 321 313 312 313 314 316 317 318 319 315 313 319 319 317 319 321 320 315 314 318 320 318 321 320 313 307 302 300 300 299 298 298 298 298 298 298 297 297 297 297
319 318 318 317 318 320 320 321 321 319 320 324 328 328 326 327 328 328 326 323 321 319 319 322 321 319 320 319 319 318 316 318 316 313 316 317 317 317 320 322 317 313 316 321 323 323 324 326 319 314 315 312 308 313 316 314 317 317 318 321 315 313 319 323 322 320 319 320 319 318 320 319 318 314 305 301 302 301 299 299 298 298 298 298 297 297 297 296
317 316 316 317 318 319 320 321 319 318 321 325 328 328 327 326 322 322 324 322 319 318 321 326 323 321 321 320 320 318 317 319 316 314 318 317 317 318 319 320 317 313 314 314 317 320 321 324 320 313 315 314 309 314 318 312 310 316 319 316 314 319 322 320 320 323 323 320 321 323 320 317 318 317 313 310 307 302 300 299 298 298 298 297 297 297 297 296
315 316 317 316 317 318 319 319 317 318 322 326 328 328 327 326 322 322 324 322 322 322 322 325 325 324 323 321 322 319 317 319 316 315 320 318 318 318 316 317 316 313 314 313 317 320 318 321 322 313 311 314 313 315 320 316 311 312 313 311 314 320 322 321 319 321 323 321 321 324 321 319 319 318 320 320 309 301 300 299 298 298 297 297 297 296 296 295
313 316 318 314 315 318 318 317 317 319 323 325 327 326 324 324 323 324 323 322 323 321 322 327 328 327 325 322 322 321 319 319 316 316 320 318 318 317 315 318 317 314 314 313 315 319 316 317 321 317 311 313 317 317 318 318 314 314 315 315 316 315 317 319 317 317 322 323 324 323 318 321 322 314 315 316 308 300 299 299 298 297 297 297 296 296 295 294
313 318 317 313 315 317 316 317 319 321 323 324 325 325 322 322 323 323 321 322 324 320 321 328 328 327 328 324 323 323 321 321 318 319 320 318 319 319 316 318 317 314 314 313 315 319 316 317 323 322 316 317 321 316 311 313 316 316 317 317 318 316 317 319 317 317 319 320 324 323 316 320 319 308 308 310 305 301 299 299 299 298 298 297 296 296 295 295
315 319 316 312 314 315 315 319 320 321 324 324 323 323 322 322 323 322 320 321 324 322 321 324 325 326 328 325 324 323 323 323 320 320 321 321 323 321 316 317 318 318 319 318 318 318 317 319 323 323 319 318 318 312 307 310 313 315 316 317 317 317 318 320 318 318 317 316 318 319 318 318 312 304 306 307 304 301 299 299 299 299 298 297 296 296 296 295
315 316 312 310 313 314 317 321 320 321 323 321 321 322 321 321 322 321 320 320 322 323 323 323 322 323 325 324 323 322 323 323 321 321 324 323 323 321 317 318 319 321 324 321 318 317 318 320 321 320 320 318 316 314 312 311 312 315 316 316 316 317 317 317 316 318 320 318 317 317 319 317 310 305 305 303 302 302 300 300 300 299 298 298 297 297 296 295
312 311 310 310 312 314 318 321 321 321 321 319 320 320 319 320 321 320 320 321 322 322 323 323 321 322 323 323 322 321 322 323 321 320 321 322 319 315 315 318 318 319 322 320 320 321 319 320 321 321 322 320 318 318 317 315 315 317 318 317 315 316 317 314 313 316 318 318 318 317 316 315 312 308 305 303 302 302 300 299 299 300 300 299 297 296 296 295
311 311 311 310 310 312 316 318 319 321 321 320 320 320 319 320 319 319 320 320 321 322 323 323 321 321 322 321 321 321 321 323 323 320 318 319 317 313 313 315 315 317 320 319 319 321 319 320 321 321 321 321 320 320 318 318 317 315 316 316 314 314 314 314 314 316 316 317 318 316 315 315 312 309 307 305 303 303 302 300 300 300 301 300 298 297 296 296
313 313 312 311 310 311 312 313 315 319 319 319 320 320 320 320 319 318 319 319 320 319 320 320 319 320 320 320 321 322 320 320 321 321 319 318 318 313 311 311 311 314 317 315 315 318 319 319 319 320 321 320 320 319 316 316 318 315 315 316 315 313 312 313 315 316 315 316 316 315 315 315 313 310 309 307 307 307 305 302 301 302 302 301 299 298 297 296
312 312 310 311 312 311 311 311 313 316 317 318 319 319 319 320 319 318 318 319 319 318 318 318 318 319 320 319 320 321 320 319 318 319 319 319 317 312 308 309 310 312 313 311 311 316 319 317 316 318 318 316 317 318 313 313 316 317 315 315 314 311 309 311 313 314 315 315 315 314 313 313 314 312 310 310 309 307 306 305 304 304 302 301 299 298 298 296
309 310 309 310 312 312 311 311 312 313 314 315 316 316 318 319 319 319 318 316 317 318 318 318 317 319 320 319 320 321 320 319 318 318 318 317 316 313 310 310 309 309 310 309 309 314 318 318 316 315 315 314 314 314 312 311 313 314 314 315 312 309 308 309 311 312 313 313 312 312 311 311 312 310 310 310 308 306 306 307 305 303 301 300 300 299 299 297
306 308 307 307 309 310 310 311 311 312 313 313 313 313 314 316 317 317 317 316 316 317 318 318 317 318 318 318 320 320 320 320 319 318 318 316 315 315 314 313 310 308 310 311 311 313 316 317 314 312 313 313 311 309 308 309 310 310 311 312 310 308 307 308 309 308 308 309 309 309 309 308 308 308 308 307 305 306 307 305 302 301 302 303 303 301 300 297
306 307 307 306 307 307 309 311 311 312 311 310 311 311 311 312 313 314 315 317 316 316 317 317 316 317 317 317 319 319 318 318 319 318 316 315 314 314 315 316 312 308 309 310 310 310 312 314 311 309 313 311 306 305 305 305 306 308 310 309 306 305 305 306 306 305 304 306 306 306 306 305 304 304 305 304 305 306 306 304 301 301 302 302 302 301 299 296
299 299 302 306 308 307 308 309 310 311 310 310 311 311 310 311 311 312 314 314 315 315 316 316 316 316 316 316 317 317 317 317 318 318 316 315 315 313 313 315 313 310 310 310 309 310 310 311 308 308 314 311 303 302 303 301 301 303 304 304 302 303 305 304 303 304 304 305 304 303 304 304 302 302 302 304 305 304 302 302 301 301 300 299 301 301 298 295
297 296 299 304 308 307 307 309 309 311 311 311 311 311 311 311 311 311 313 313 313 314 314 316 316 316 316 316 316 316 315 312 309 309 309 311 313 311 309 310 310 310 310 308 308 309 309 309 308 308 313 309 300 300 302 302 304 305 304 302 300 300 302 302 302 302 302 303 304 303 303 303 301 300 301 301 302 301 300 300 300 300 299 298 299 299 297 294
Wind_Speed
4 4 4 4 4 3 3 2 3 3 3 4 4 4 5 5 5 5 5 5 5 6 7 8 8 9 10 11 12 14 16 16 17 14 9 7 5 5 3 1 1 4 6 6 6 5 4 2 1 4 3 3 4 3 4 4 3 4 4 3 0 3 3 4 6 5 2 3 5 4 2 2 5 5 4 3 3 4 6 6 4 3 5 7 10 11 11 10
5 5 4 4 4 4 4 4 4 4 3 3 3 4 4 4 4 4 5 5 6 6 7 8 8 9 10 10 12 13 16 17 17 13 8 5 4 7 4 2 2 4 6 5 5 5 5 1 1 5 5 3 3 3 3 3 3 4 3 2 2 5 5 5 7 5 3 2 5 5 2 2 4 3 3 3 7 7 8 10 5 3 6 8 10 10 11 10
6 6 5 5 4 4 4 4 4 4 3 3 3 3 4 4 4 5 5 5 6 6 7 8 8 9 9 10 10 13 15 14 10 7 3 1 7 8 5 4 3 6 6 3 4 4 4 1 2 4 5 3 2 3 3 2 1 1 4 1 5 6 4 5 6 6 5 3 4 6 1 2 5 3 1 1 6 9 7 9 5 6 7 5 7 7 10 11
7 7 6 5 5 4 4 4 4 4 3 3 3 3 3 4 5 5 5 5 6 7 7 8 8 8 8 9 9 11 12 9 3 1 2 5 9 8 5 5 5 7 6 3 4 4 1 2 4 4 4 2 3 3 1 2 1 1 3 3 6 3 2 6 6 7 6 4 3 4 3 4 4 3 1 1 4 9 8 7 5 6 9 7 7 8 10 10
8 7 7 6 5 5 5 4 3 3 2 2 2 3 3 4 5 5 6 6 6 6 7 8 9 8 8 8 7 9 8 5 2 2 3 6 7 6 6 6 6 8 7 4 5 4 1 3 5 5 4 1 3 3 1 2 2 2 2 5 5 3 3 7 4 6 4 3 2 4 5 5 3 2 2 1 2 6 7 6 4 3 6 6 6 8 10 11
9 8 7 6 5 5 5 3 2 1 1 1 2 2 3 5 5 6 7 6 6 7 8 8 9 9 7 6 5 4 3 0 3 2 4 6 6 5 5 5 6 8 8 5 4 4 2 4 5 3 3 2 0 1 3 3 2 1 4 3 3 4 4 6 3 4 2 0 3 3 4 2 4 5 3 4 7 11 8 6 5 4 4 5 8 9 10 11
9 8 7 7 6 5 4 2 1 1 1 1 2 3 4 5 6 7 8 7 7 7 8 8 9 9 6 4 3 2 3 4 8 4 6 7 7 5 4 5 6 8 10 6 3 4 4 4 3 3 4 2 2 3 3 2 3 2 3 4 4 4 5 7 5 6 3 3 6 2 3 3 4 6 2 3 12 12 5 5 5 6 10 12 12 10 8 9
8 8 8 7 6 5 3 2 2 1 1 1 2 3 4 5 6 7 8 8 7 7 7 7 7 7 4 2 2 3 1 7 9 7 8 7 8 6 5 5 6 8 9 8 5 5 5 5 4 4 3 1 4 2 1 1 3 3 5 4 3 3 6 7 6 8 7 6 5 1 5 7 7 4 2 9 15 7 5 7 7 9 13 14 11 9 9 10
7 8 8 7 7 5 2 2 2 1 1 1 2 3 4 5 6 7 8 8 7 6 6 6 6 4 3 2 4 2 4 6 6 6 6 7 9 8 6 5 6 8 8 6 5 6 5 4 5 4 3 3 4 3 2 1 2 5 6 3 3 5 7 6 6 8 6 5 3 2 9 7 4 2 2 13 11 5 8 8 8 11 12 10 9 10 10 10
8 8 8 8 6 4 3 3 2 2 1 1 1 3 4 5 6 7 7 8 7 6 6 6 5 4 4 3 6 0 5 3 3 4 4 6 8 8 7 5 6 8 8 6 6 7 5 5 5 4 4 3 3 2 2 3 3 4 4 4 5 7 8 4 6 8 4 4 5 6 10 6 2 0 3 8 1 7 10 10 9 11 10 9 8 8 10 11
8 9 9 8 7 5 4 4 4 3 2 1 1 2 4 5 6 7 7 7 7 6 6 5 5 4 5 4 5 4 5 2 3 4 4 6 7 7 6 5 6 9 8 5 7 7 4 6 7 6 2 2 3 1 1 3 2 3 2 5 7 6 8 5 7 7 1 3 5 7 5 3 2 0 7 5 6 9 10 10 9 10 8 7 8 8 10 11
8 9 9 9 7 6 6 5 5 4 3 1 1 3 4 6 6 7 8 7 7 6 6 5 5 6 5 2 4 8 6 3 4 4 5 6 6 6 5 5 5 8 8 5 5 6 3 6 8 5 2 3 2 1 2 3 3 1 1 4 8 7 8 7 4 3 1 1 4 7 2 4 1 6 10 4 6 9 11 10 7 8 6 6 7 6 8 11
10 10 11 10 8 7 7 6 5 4 2 1 2 3 5 6 7 8 8 7 7 6 6 5 5 8 5 0 6 12 11 7 5 4 5 6 6 5 4 5 5 5 7 4 4 5 4 6 7 4 2 4 1 1 2 2 2 1 2 1 5 7 7 6 1 2 1 0 3 5 3 6 6 10 8 6 6 8 11 8 6 6 5 6 6 6 7 11
11 11 12 10 7 7 7 6 5 3 2 2 3 4 5 7 7 7 7 7 6 6 5 3 6 8 4 3 5 7 10 9 7 6 6 7 6 5 4 4 4 3 4 5 6 6 4 4 5 3 1 3 1 1 3 5 3 1 1 1 2 2 5 7 1 1 1 1 1 4 2 6 8 10 4 5 5 9 9 5 6 5 5 5 5 6 6 9
12 12 11 9 8 8 7 6 5 3 2 3 3 5 7 7 8 7 6 5 4 3 1 3 7 7 1 5 5 4 7 8 8 9 8 7 6 4 5 5 5 5 6 6 6 5 4 4 4 3 1 2 3 2 3 5 3 2 1 3 3 2 5 9 4 3 1 2 2 5 2 5 8 10 2 5 6 9 8 5 6 5 6 6 5 6 5 6
13 12 11 9 9 9 8 6 5 3 3 3 4 6 7 8 7 6 4 2 1 3 4 4 7 5 0 3 2 3 6 6 7 10 9 9 8 5 6 7 6 6 6 5 6 5 4 4 2 2 1 1 4 4 3 4 4 3 1 3 3 3 3 7 4 1 1 1 2 2 2 4 6 9 3 7 7 8 8 6 6 6 6 6 5 5 5 5
13 12 10 10 10 9 8 6 4 3 3 4 5 6 8 8 6 3 1 3 5 5 5 4 5 3 2 2 1 2 4 5 6 9 10 10 8 7 8 7 4 6 7 5 4 3 3 4 1 1 2 2 3 4 3 2 4 3 1 2 4 3 2 3 4 4 5 4 1 1 2 6 8 10 6 8 6 8 8 6 6 6 6 5 5 5 5 6
14 12 11 12 11 9 8 5 4 3 4 4 5 6 6 5 2 1 3 5 5 5 3 1 3 1 3 2 2 2 2 5 7 9 10 8 8 9 7 5 5 7 6 4 2 2 2 3 2 1 3 2 2 5 3 5 5 3 3 2 3 3 4 4 4 3 5 4 2 1 3 8 11 10 6 7 5 8 8 6 6 6 6 5 5 6 6 7
14 12 13 12 10 8 7 5 3 3 4 4 5 5 3 2 1 2 4 4 3 2 1 3 4 2 3 3 1 2 5 7 8 7 8 9 8 8 6 6 6 6 4 2 1 1 1 3 3 1 1 3 5 8 9 9 7 6 5 4 4 4 5 5 5 5 2 4 4 4 5 7 10 9 6 8 5 9 8 6 6 5 6 5 5 5 6 6
14 14 14 13 10 8 6 5 3 3 4 4 3 2 0 1 2 2 2 3 5 5 2 5 6 2 2 2 2 6 6 6 4 5 8 10 10 8 5 4 5 5 3 4 2 1 3 3 3 5 6 8 10 11 9 4 4 4 2 2 4 5 6 5 5 5 1 1 6 4 4 7 9 6 7 7 5 8 6 6 6 5 5 5 5 5 6 6
15 15 16 13 11 8 6 5 4 4 5 5 3 0 2 3 1 2 2 3 8 9 6 6 7 5 4 2 6 8 5 2 1 2 9 9 9 8 1 2 4 1 1 3 3 2 3 4 8 10 9 8 7 8 6 2 2 2 1 2 4 5 6 7 5 5 1 2 4 3 3 8 7 4 7 6 6 7 5 6 6 5 6 5 6 6 5 4
17 17 17 14 12 9 7 5 4 5 5 4 2 2 2 2 2 0 1 3 8 8 9 7 4 7 7 3 6 8 3 1 1 1 8 7 4 5 1 3 4 3 2 2 3 2 2 4 12 11 5 3 3 5 5 4 3 2 2 2 4 4 4 7 6 4 1 3 3 2 2 8 5 5 6 6 6 5 5 6 5 5 6 5 5 5 5 5
19 19 16 14 12 9 7 5 5 6 7 5 3 3 2 1 1 1 3 0 6 4 5 6 5 6 6 4 7 8 4 5 4 4 9 9 2 4 4 4 4 3 2 4 5 4 3 7 12 7 5 4 1 4 7 3 2 2 3 3 4 3 1 4 5 4 2 1 2 3 4 6 2 3 5 6 5 5 6 7 6 5 5 5 5 5 5 6
20 18 16 15 12 9 6 4 6 7 7 7 6 5 2 1 3 2 2 1 4 4 4 6 5 5 5 4 7 10 5 4 4 5 11 11 4 3 4 5 5 3 4 7 8 6 7 7 3 4 6 6 5 3 6 5 1 3 5 5 5 5 5 6 4 5 4 3 2 0 3 5 2 1 2 4 4 5 5 6 7 6 5 5 5 5 5 5
22 19 16 15 12 8 5 4 7 8 6 5 7 7 4 3 4 4 2 1 3 5 3 4 3 3 5 4 7 9 3 2 3 4 10 11 6 4 2 3 4 5 6 6 6 5 8 6 3 4 3 4 5 4 5 6 3 4 5 9 10 8 8 6 2 4 4 3 3 3 3 5 3 2 3 3 3 4 4 5 6 5 5 5 5 5 5 5
24 21 17 16 12 9 6 3 6 8 6 5 6 7 7 5 5 5 3 3 4 4 1 3 2 4 6 4 5 6 3 2 2 2 7 8 5 4 2 1 1 4 6 5 3 3 5 3 2 4 4 5 4 5 5 7 5 2 4 8 10 7 6 4 2 2 1 3 3 2 1 5 5 3 4 5 4 4 4 5 4 4 4 4 4 3 4 4
27 24 20 17 15 14 8 2 5 8 4 5 7 10 8 6 6 5 2 3 4 3 3 1 0 4 5 2 2 6 2 3 2 3 3 4 1 3 2 3 2 2 3 4 1 3 4 2 2 4 5 5 5 4 6 7 6 3 4 4 6 6 6 5 5 3 2 2 4 3 1 3 4 4 2 6 6 3 3 3 3 3 3 3 3 3 3 4
30 25 22 21 20 19 11 3 7 10 4 3 9 12 9 7 6 3 3 2 3 2 3 1 0 2 2 1 3 4 2 1 4 1 1 3 1 2 2 6 6 4 3 5 3 4 2 2 3 6 4 4 5 4 6 9 4 5 3 6 6 6 5 4 5 2 1 2 4 5 1 2 5 4 1 5 4 2 3 3 2 2 1 1 2 3 4 4
32 26 25 25 20 18 14 9 8 9 6 5 11 13 10 8 6 4 3 3 1 2 1 1 2 1 1 2 3 2 1 2 2 2 2 2 0 3 3 5 6 5 1 3 5 4 1 3 5 7 5 5 4 1 4 7 4 4 5 6 5 5 5 4 5 3 2 2 4 6 3 2 5 4 1 2 2 5 5 4 4 4 3 2 1 2 3 4
33 28 27 27 20 18 17 16 15 11 6 9 12 12 11 6 3 3 3 5 1 1 1 2 2 1 4 5 0 1 2 1 1 1 2 1 2 4 1 2 5 5 1 3 2 3 2 2 3 5 4 5 4 3 2 3 3 5 6 6 6 5 5 4 2 3 2 2 6 8 7 5 4 5 3 4 3 4 6 5 5 4 4 4 3 2 2 3
34 30 31 28 23 22 15 12 22 18 9 12 15 12 8 3 2 3 7 3 2 1 2 2 1 3 6 6 2 1 2 1 1 3 2 1 2 3 1 1 3 3 2 4 2 4 4 2 2 2 2 4 6 4 3 3 3 5 4 4 3 3 4 4 4 3 0 5 5 5 4 5 4 5 4 4 2 3 5 7 9 9 7 6 4 4 3 3
33 33 34 30 25 25 17 12 23 24 16 16 16 8 4 2 3 5 3 1 1 3 4 3 2 4 6 3 2 3 3 1 1 3 4 3 3 3 2 4 4 2 2 4 2 3 3 3 3 2 2 4 6 4 3 5 5 5 4 4 3 2 3 3 3 0 3 6 4 2 1 3 6 5 4 3 3 3 5 6 10 12 10 7 6 5 4 3
32 34 35 33 29 28 24 19 20 22 23 21 13 3 2 4 6 6 5 2 2 3 4 4 3 5 7 4 2 4 3 2 3 3 2 3 3 4 4 3 6 4 1 4 2 0 3 5 1 1 2 3 7 5 2 1 1 4 5 4 4 1 0 2 3 2 4 5 2 1 0 2 5 3 2 4 5 5 6 5 9 11 10 9 7 5 4 3
30 33 36 36 33 31 29 25 19 20 25 21 9 3 5 6 5 7 9 6 2 2 2 4 5 6 6 4 4 5 3 2 4 4 2 3 3 4 5 4 5 4 3 3 2 4 2 4 3 5 3 4 8 6 6 6 3 4 4 5 4 4 4 4 4 3 4 4 2 2 1 2 3 1 2 4 4 4 2 3 8 8 7 6 5 4 4 4
31 33 36 35 33 33 32 29 24 25 25 15 5 5 9 9 3 5 8 5 2 2 2 2 6 6 4 3 3 5 4 2 4 4 2 4 4 4 4 6 7 4 3 3 2 2 3 5 6 3 1 6 7 4 5 7 3 2 3 4 2 4 4 2 3 5 3 2 3 2 3 4 4 1 2 2 2 4 4 5 8 7 5 5 5 5 5 4
35 34 33 31 32 34 35 33 29 30 24 9 4 8 9 7 3 3 5 4 4 6 6 2 3 4 4 2 2 5 3 1 4 4 2 3 4 4 4 4 7 8 5 5 3 2 2 4 5 2 2 3 5 4 3 3 3 2 2 3 4 4 6 2 2 1 3 1 4 2 3 4 1 0 3 3 3 4 3 4 6 6 6 6 5 5 5 5
34 29 25 27 33 36 37 36 33 31 19 6 8 10 6 3 4 3 3 3 4 7 8 4 3 5 5 4 4 6 4 2 4 4 3 3 3 5 5 4 5 11 10 5 2 3 4 3 5 1 1 1 1 3 4 2 3 5 3 5 3 2 4 3 1 3 3 3 4 1 4 4 2 2 3 2 1 2 3 4 5 6 6 6 6 6 6 6
29 21 15 22 35 37 35 36 34 25 9 4 11 11 4 3 3 2 2 2 4 5 6 5 5 5 6 5 4 5 6 4 4 4 3 3 3 4 6 3 4 8 10 5 1 2 4 2 6 0 2 2 3 4 3 4 2 5 4 3 3 3 1 2 2 2 1 3 4 3 4 3 4 4 2 4 8 8 7 7 7 8 8 7 7 7 7 6
21 11 6 16 31 32 32 35 27 14 5 6 12 10 3 3 3 3 3 2 3 4 5 4 3 3 4 5 4 5 6 6 6 5 3 3 3 3 5 3 2 3 4 6 4 2 3 2 4 2 1 1 3 2 3 2 2 3 1 1 2 2 4 2 2 3 2 3 4 5 5 4 5 5 6 9 11 12 11 9 9 10 10 9 8 8 8 6
11 4 2 10 24 28 31 29 15 6 6 7 7 6 3 2 3 2 2 2 1 1 3 4 3 4 4 3 2 4 5 5 6 5 3 4 3 3 2 2 3 2 1 4 4 1 2 2 3 3 3 1 1 2 5 6 3 2 2 2 1 1 2 1 1 2 3 3 3 3 5 6 4 3 6 8 7 11 13 11 10 9 10 10 9 8 7 6
5 2 2 9 23 28 26 17 6 5 6 4 4 3 2 2 3 1 2 3 2 1 1 3 3 3 4 3 2 3 4 4 5 4 3 4 3 2 2 3 5 4 3 3 3 2 2 2 3 2 1 3 4 4 3 5 4 5 5 5 5 4 3 1 3 2 3 3 4 4 6 7 4 1 3 4 5 9 12 11 10 10 11 10 8 7 7 7
3 3 2 10 25 29 19 6 3 4 4 4 4 3 2 2 3 4 1 3 2 1 2 2 1 2 3 3 2 4 5 4 4 4 3 4 4 3 3 3 5 5 5 3 3 3 3 3 3 2 3 5 5 3 3 3 2 3 3 3 3 4 4 4 7 4 2 1 2 2 4 5 2 1 3 4 5 8 9 10 10 10 10 9 7 6 6 7
3 2 2 9 24 24 12 5 5 4 3 3 2 1 2 2 2 4 3 2 2 2 2 1 2 2 3 2 3 4 4 3 4 4 2 3 4 3 3 5 4 4 5 3 2 2 2 2 2 1 3 2 4 4 2 2 2 1 2 1 3 3 2 4 6 2 3 3 2 1 5 4 1 2 2 1 2 6 8 9 9 8 8 7 8 8 8 8
2 1 2 6 17 15 6 5 6 6 5 2 2 2 1 1 3 5 5 5 4 4 3 3 3 3 2 2 3 5 5 3 3 4 3 3 3 1 1 4 4 3 2 3 3 3 2 2 3 1 2 2 3 3 3 2 0 2 2 1 2 3 3 2 1 3 1 4 6 3 7 5 2 3 3 4 4 6 6 7 7 7 7 7 8 8 8 7
3 1 2 1 7 7 3 2 3 6 7 5 5 7 3 1 3 4 6 6 4 4 4 2 2 4 3 3 3 2 4 4 3 3 3 3 2 2 3 2 2 1 2 1 2 3 3 3 3 4 6 6 3 2 2 2 1 1 2 3 4 5 6 3 2 3 4 4 6 6 7 3 3 3 2 3 3 5 5 5 4 4 5 7 7 7 7 6
2 1 0 1 1 2 1 0 1 3 6 7 6 7 9 6 2 1 5 5 3 3 3 1 3 3 2 5 4 3 5 4 2 2 3 4 2 1 2 2 1 1 2 4 4 3 2 2 4 7 9 8 5 4 3 3 4 4 4 6 6 6 6 5 4 3 5 3 5 8 4 0 3 3 3 3 3 5 6 5 5 5 6 7 7 6 6 6
1 1 3 2 0 2 2 1 2 2 3 5 4 4 9 11 4 0 3 4 3 5 2 1 3 4 4 6 6 5 6 4 3 3 3 3 2 2 1 1 2 1 1 4 3 3 3 3 7 10 10 6 4 4 3 3 5 7 7 8 7 5 6 7 6 6 5 4 9 7 5 3 8 7 6 7 7 7 6 6 7 8 7 6 5 5 6 7
0 1 2 1 1 3 5 3 4 3 2 3 2 0 4 9 8 4 3 1 2 5 3 1 3 7 7 7 6 4 5 4 4 4 3 2 2 1 1 0 0 1 2 2 1 3 4 5 5 7 7 4 4 3 3 4 3 4 6 8 8 7 7 8 9 10 8 7 9 5 6 8 10 6 8 10 9 8 7 8 8 7 5 5 5 6 8 8
1 1 1 1 1 2 4 2 5 5 4 2 0 1 2 6 7 4 2 2 1 3 5 5 7 8 8 7 6 5 6 6 5 5 5 4 4 3 1 1 2 0 3 3 0 1 3 3 2 4 4 3 2 1 3 4 3 3 7 9 7 7 8 8 10 9 5 5 8 6 6 9 8 6 8 8 6 6 5 5 5 4 5 6 7 8 9 8
1 1 1 2 1 1 1 2 5 5 5 3 3 4 3 3 5 3 1 4 3 2 5 8 9 7 8 8 8 8 9 9 8 8 8 6 4 4 4 4 3 2 2 3 2 1 2 1 2 3 2 1 1 1 3 2 2 5 10 10 4 5 7 9 9 4 2 6 10 8 8 10 9 6 6 5 4 4 6 7 5 6 7 7 7 8 8 8
3 2 2 3 2 2 2 2 4 5 5 5 6 5 4 6 9 7 3 4 6 5 5 10 10 5 5 7 10 13 13 10 9 9 10 10 7 5 4 4 7 7 4 3 2 1 2 1 2 3 3 3 1 3 3 3 2 5 13 12 6 6 8 9 6 5 8 11 10 6 7 10 8 2 4 5 6 6 8 9 7 7 6 7 8 9 8 8
4 3 3 2 2 3 4 3 4 4 4 5 7 7 7 10 11 9 4 3 6 6 5 8 10 5 5 9 13 14 9 5 3 3 4 5 3 4 2 1 4 6 7 6 2 1 4 3 2 3 4 3 1 3 3 4 2 8 12 10 11 10 11 9 5 8 10 8 6 7 9 10 4 2 3 7 7 7 8 8 8 7 6 7 8 8 8 9
Wind_Direction
267 251 240 236 239 244 249 261 267 277 290 294 301 303 308 313 311 319 321 321 320 318 319 319 323 326 327 332 332 332 330 327 324 317 303 298 265 200 193 284 250 195 174 173 170 154 118 81 53 28 37 41 10 339 347 2 57 52 76 99 270 194 198 183 188 192 159 264 273 316 25 149 289 310 319 318 345 325 322 307 263 285 294 258 268 290 305 306
280 270 257 252 251 253 260 267 270 273 284 293 303 305 315 315 311 327 327 324 321 316 319 319 322 323 327 332 333 335 332 328 323 313 303 289 206 180 183 168 188 185 173 179 186 152 106 41 350 48 42 36 350 350 360 351 57 77 113 101 242 203 209 197 185 194 186 248 259 291 316 196 245 273 349 316 298 330 332 304 309 339 298 279 285 295 305 305
287 281 271 267 265 264 263 269 277 277 284 294 302 316 327 319 322 339 339 334 324 321 321 318 320 321 327 332 337 340 334 331 324 314 331 154 163 167 166 151 156 174 177 182 194 159 97 133 130 76 44 46 342 2 26 355 27 134 120 84 248 212 237 238 197 209 222 226 264 292 298 202 239 236 331 307 296 317 308 287 310 327 311 308 316 324 317 304
286 281 272 268 265 262 266 269 275 282 290 298 313 334 335 320 323 331 334 335 326 322 319 317 318 319 326 330 339 340 338 345 309 246 102 140 155 162 159 155 158 173 186 170 171 170 73 99 101 74 58 47 330 5 44 306 355 152 132 181 231 191 254 252 210 218 233 205 219 282 333 305 262 193 193 57 332 313 290 261 229 271 308 326 326 324 325 323
285 282 271 265 262 260 264 268 277 290 302 319 336 340 329 316 317 319 321 328 325 320 315 312 311 312 321 325 334 336 353 17 265 208 165 165 160 167 164 160 163 178 187 164 160 158 105 105 87 57 62 53 336 26 270 270 105 151 222 207 205 157 249 268 217 202 210 196 240 309 323 305 291 181 195 197 287 271 268 272 246 258 307 320 331 340 2 16
284 282 270 262 260 258 260 261 270 291 323 342 340 323 316 311 313 313 311 318 321 315 308 305 303 305 310 314 322 339 44 32 266 227 207 194 177 176 165 167 169 186 194 179 162 151 119 82 73 70 66 40 217 169 249 279 82 196 274 270 230 185 233 280 267 223 195 348 277 293 304 318 349 306 241 196 231 240 254 292 323 4 4 9 34 35 35 37
288 281 270 262 258 257 259 246 227 234 306 321 325 317 314 314 315 312 310 314 316 310 304 300 297 296 299 296 296 18 92 244 264 253 232 210 200 191 166 186 185 195 204 200 177 148 120 92 110 147 94 42 197 208 246 321 33 166 259 300 263 200 221 259 278 278 284 274 254 251 316 298 284 282 301 259 253 258 293 3 6 37 49 51 55 50 46 42
294 282 267 261 260 260 253 228 216 206 275 310 325 321 317 315 313 310 310 312 315 311 302 295 290 292 293 242 193 8 343 247 258 252 239 226 221 208 186 203 202 205 205 209 202 163 138 131 168 155 102 223 185 170 181 19 22 178 221 270 270 234 243 264 287 285 282 267 244 191 277 258 232 241 345 270 268 293 41 42 35 60 55 51 52 41 41 38
293 287 271 259 256 248 224 215 208 196 259 317 320 317 312 310 308 309 311 313 317 310 303 295 286 274 244 170 109 16 269 239 254 251 242 237 229 217 208 211 210 207 193 202 198 170 170 173 192 181 164 196 175 172 148 127 270 206 203 243 278 284 278 287 285 270 267 254 176 198 269 271 243 211 268 256 266 9 60 52 43 65 55 44 46 39 36 32
289 288 272 258 248 228 201 197 189 188 212 235 296 310 309 308 309 310 313 316 318 310 305 294 279 245 206 147 97 188 255 235 261 256 246 234 221 214 215 219 213 200 184 185 183 167 173 193 187 153 141 143 162 174 133 153 207 191 190 253 259 273 282 266 258 264 253 243 205 219 267 293 315 50 268 265 356 55 59 56 50 64 56 44 43 36 35 33
282 285 270 254 239 216 196 191 182 184 197 197 282 305 309 313 314 314 317 317 317 311 303 288 269 233 193 141 129 210 256 252 261 260 239 220 211 213 215 221 209 197 188 175 191 193 187 190 157 112 122 175 157 159 231 188 138 161 185 302 284 296 296 247 251 274 247 253 208 187 252 307 24 170 238 253 69 71 70 65 54 61 56 45 44 36 36 31
276 284 272 251 230 211 195 189 183 185 193 196 287 313 319 317 316 317 321 320 318 311 296 281 244 203 167 116 198 225 246 252 252 248 229 211 201 204 196 201 197 199 206 189 192 194 177 180 145 117 219 162 139 291 233 193 97 147 84 325 300 342 318 261 249 283 148 232 180 153 278 307 199 222 239 286 42 73 78 71 59 63 56 46 44 37 38 28
276 282 272 252 226 205 192 186 182 182 188 234 296 319 319 316 320 321 323 322 319 310 292 277 219 184 154 229 235 232 241 246 243 223 202 187 179 184 177 183 183 197 222 210 173 156 152 183 155 140 161 117 170 241 96 56 64 289 41 19 302 356 319 273 90 31 2 240 170 142 273 280 251 245 259 338 23 71 72 69 68 64 54 48 42 39 39 28
275 279 271 251 217 195 187 181 179 181 205 266 293 313 313 318 323 321 326 323 317 305 287 250 183 167 150 251 251 241 237 236 231 206 179 171 166 175 177 168 167 166 185 170 141 124 126 162 139 111 98 97 182 211 38 8 11 312 341 35 339 350 280 294 3 164 333 353 112 117 216 261 274 276 298 7 32 75 75 76 74 63 55 48 39 41 36 29
272 277 267 240 202 185 178 175 177 187 228 265 289 307 312 319 322 323 327 322 318 301 241 152 159 148 95 274 263 242 227 225 222 208 192 189 188 193 186 167 149 136 143 146 133 124 123 133 120 112 205 11 56 63 2 348 2 30 287 304 335 204 264 310 309 183 204 335 62 118 201 271 278 281 327 46 34 73 90 86 75 67 59 50 40 41 33 28
268 270 256 221 192 180 175 176 182 203 245 272 295 309 315 320 322 326 331 338 62 114 111 128 154 142 32 269 239 214 218 217 213 207 201 203 210 202 169 156 137 132 141 140 134 135 100 84 81 116 163 46 70 82 39 357 333 360 196 248 269 209 270 318 325 328 19 49 35 104 216 281 281 276 316 41 34 76 96 88 77 72 62 55 46 41 34 28
265 263 242 205 187 180 177 178 186 217 263 279 299 314 320 323 319 319 29 103 106 100 95 131 154 136 282 227 184 242 213 196 195 192 193 199 205 185 154 137 120 124 122 113 124 120 45 45 44 338 57 65 102 102 61 319 286 312 346 237 249 210 214 299 306 335 35 74 342 13 229 255 271 279 319 18 40 93 99 91 79 68 60 55 48 43 36 31
262 254 226 197 186 181 178 182 198 239 275 288 311 319 320 325 317 191 142 128 101 72 59 125 140 146 274 216 193 227 145 161 168 167 179 181 180 173 153 129 121 115 94 63 62 80 9 21 66 44 34 52 126 119 168 231 215 207 199 208 258 242 221 253 267 297 17 24 272 213 246 261 272 279 323 9 47 99 100 96 85 70 65 55 46 44 35 33
257 244 217 197 187 184 184 192 214 259 283 294 313 321 325 359 71 169 165 149 127 114 208 211 165 153 247 252 207 115 105 134 149 156 162 153 155 154 128 108 108 105 97 92 3 70 100 52 68 166 197 188 187 177 198 211 185 182 183 170 204 246 248 243 250 264 330 346 284 237 243 261 271 283 340 357 38 93 99 94 83 71 67 57 51 45 34 39
253 234 211 196 188 191 194 205 234 265 281 292 316 346 166 78 33 301 218 187 209 204 187 198 193 198 266 260 146 125 118 122 136 165 161 155 150 131 97 69 67 65 106 157 188 77 108 131 201 219 208 203 206 204 206 194 130 133 134 154 205 233 266 265 260 279 340 306 279 264 266 273 271 303 358 349 29 69 75 82 78 69 66 55 56 48 33 39
247 223 205 195 191 194 201 219 245 258 273 288 307 41 187 170 118 295 272 258 244 232 239 223 207 244 259 194 160 151 134 100 48 149 163 166 152 142 117 39 89 77 251 167 145 58 96 166 227 230 213 204 201 199 214 245 96 95 159 249 266 237 256 266 255 289 359 167 273 327 317 278 280 345 6 7 43 45 38 72 75 68 69 57 54 46 32 34
237 214 201 194 190 194 206 228 250 263 276 281 270 216 218 196 159 215 120 290 273 240 237 241 229 257 257 232 194 164 128 189 275 206 173 159 143 175 175 82 137 192 233 132 103 58 101 212 241 238 195 134 104 139 174 214 191 137 138 201 265 248 275 285 277 311 25 154 276 320 258 273 304 28 23 30 57 49 38 60 63 63 66 52 49 38 30 36
225 208 199 191 190 196 205 229 252 266 269 260 239 209 224 223 160 115 107 281 293 267 223 224 217 238 241 252 212 174 178 206 196 230 185 154 135 186 146 124 161 157 157 183 162 152 178 241 247 228 142 152 175 115 126 138 156 154 149 164 247 255 302 283 292 331 8 108 268 216 226 274 307 61 45 43 69 73 58 61 57 54 61 55 51 39 32 37
213 202 195 189 192 197 202 244 262 262 259 250 240 224 206 173 158 128 92 44 290 279 241 213 199 208 211 224 193 177 202 208 175 211 182 159 142 154 164 160 146 147 201 203 180 180 221 242 242 104 126 178 205 159 132 139 222 234 201 191 229 239 214 227 279 336 349 7 6 125 298 293 264 198 94 71 75 72 57 60 56 41 45 52 52 43 33 37
201 195 193 194 197 191 190 250 256 243 236 230 233 221 193 179 166 132 83 31 288 292 280 215 194 205 189 152 167 173 174 212 211 204 176 167 152 137 196 165 136 202 211 180 172 216 247 238 109 89 114 154 190 211 174 162 197 284 235 206 217 223 216 230 308 9 7 343 343 30 337 293 306 282 177 140 76 63 43 48 58 39 33 41 42 38 26 33
194 194 198 202 197 181 183 239 239 215 200 213 219 199 181 176 168 151 90 41 277 273 251 187 174 183 175 139 160 146 97 245 243 114 157 170 159 125 161 168 109 215 185 145 165 222 259 256 141 153 140 136 185 242 221 168 145 294 248 205 210 205 192 204 168 103 182 252 294 37 226 268 315 316 195 149 95 75 54 46 55 43 38 41 37 34 27 31
194 201 203 202 196 189 189 199 194 173 166 228 204 181 181 177 175 177 84 14 276 210 136 207 54 151 171 176 164 139 155 240 104 76 132 149 165 85 133 193 158 198 163 123 166 232 227 253 124 140 120 139 190 243 223 160 127 249 248 151 159 169 172 179 155 154 218 254 319 1 132 261 287 284 208 130 110 86 75 62 56 51 51 48 35 30 37 36
200 207 202 201 202 202 201 176 172 174 185 208 175 175 174 169 176 143 80 288 278 108 112 244 76 107 147 59 72 121 191 236 111 210 347 98 176 61 126 210 174 173 161 135 203 255 199 206 198 161 135 177 205 228 195 158 149 243 208 116 126 145 149 135 121 124 353 31 314 303 352 270 264 272 36 116 138 204 181 174 166 133 117 92 67 41 37 37
204 208 201 203 208 209 215 222 198 193 212 177 162 174 167 164 167 80 72 231 249 88 93 117 127 59 53 90 43 64 71 25 123 232 1 90 209 65 158 206 153 148 130 133 205 246 170 223 204 155 157 205 207 266 182 166 191 206 130 96 72 73 82 77 98 107 40 59 248 247 194 217 271 279 205 147 225 229 189 186 196 181 185 180 141 84 60 48
205 206 202 205 209 209 215 227 220 204 191 177 167 164 157 153 124 93 221 229 136 128 127 108 163 125 108 129 357 340 95 30 44 59 34 82 15 31 127 166 102 122 47 17 227 243 309 270 186 144 173 193 150 82 109 142 152 139 102 68 42 32 44 43 63 87 45 274 244 233 199 189 266 283 219 183 208 192 163 170 192 190 194 199 196 163 112 84
206 204 205 209 212 209 204 218 219 205 179 178 167 149 145 124 78 181 222 225 76 149 133 128 186 133 136 147 170 188 106 41 17 104 105 125 48 37 60 113 82 80 1 330 291 300 334 337 247 219 170 136 101 73 46 39 76 105 86 73 56 343 15 25 359 44 90 252 259 262 218 182 228 263 236 215 220 184 175 180 179 180 187 191 194 186 160 127
209 203 209 217 219 215 208 216 216 205 193 179 162 138 128 157 212 210 214 83 136 202 164 165 187 155 156 141 141 168 135 118 166 130 139 141 153 180 182 173 158 88 316 247 254 335 301 243 265 300 190 142 106 76 30 7 33 86 98 92 89 324 357 358 312 337 227 251 263 283 203 195 237 244 232 249 276 267 249 208 176 174 178 180 188 186 164 129
212 206 213 223 225 222 220 222 218 206 192 174 156 129 123 199 224 193 173 185 199 186 142 133 131 141 147 138 179 181 140 168 184 155 143 124 153 218 251 211 165 129 181 204 183 41 285 292 301 144 263 184 145 141 163 244 133 142 149 132 128 141 90 275 272 268 268 270 271 276 182 250 273 265 220 258 283 285 270 218 172 167 170 173 177 168 144 121
214 209 215 224 226 227 225 224 224 208 186 168 158 169 176 218 230 159 178 211 199 120 103 121 120 124 149 172 204 176 141 210 177 135 111 117 142 222 247 233 183 126 99 137 169 174 197 292 218 179 228 187 171 178 162 143 148 176 159 135 145 156 167 221 224 210 260 286 293 287 215 203 229 245 237 252 285 320 326 144 143 148 157 155 147 143 146 142
214 210 215 222 225 228 226 225 225 205 184 169 170 189 197 219 213 150 186 195 164 121 61 96 119 125 180 216 220 186 171 209 165 128 133 156 173 199 201 209 193 160 129 157 213 167 163 257 252 240 248 167 174 188 127 115 127 204 128 110 162 182 162 201 205 174 189 300 290 225 222 220 187 191 302 318 14 25 44 103 128 141 146 140 145 159 165 167
211 211 216 220 224 226 222 223 219 198 182 174 200 203 213 217 175 177 191 153 162 150 116 93 100 126 198 208 212 209 188 145 147 150 190 186 205 207 201 219 190 176 170 162 194 164 142 269 277 332 355 158 169 177 133 134 173 161 131 173 212 174 125 112 272 69 84 270 269 194 237 285 321 54 345 28 51 55 75 129 146 157 157 155 171 182 183 189
205 206 212 215 220 223 221 221 211 193 184 185 208 213 227 218 171 184 197 143 150 141 133 165 182 164 186 187 203 200 180 143 147 164 199 198 222 197 200 251 184 184 196 172 201 199 151 261 278 154 150 260 165 125 78 31 134 126 178 211 187 111 88 97 247 344 36 244 272 211 215 256 252 252 336 21 175 187 187 183 173 178 176 174 187 194 198 197
193 196 209 216 217 218 218 214 200 187 189 209 216 223 217 197 196 170 184 152 126 136 153 186 192 179 181 185 196 180 172 177 162 174 190 198 238 179 170 221 180 190 205 167 191 254 135 231 284 301 149 301 10 87 69 353 63 126 187 193 116 134 153 94 166 232 247 243 281 289 259 241 210 212 211 212 212 200 196 196 192 193 189 189 196 200 205 197
180 183 225 217 212 210 205 199 187 180 208 207 215 227 189 171 225 196 180 159 109 146 177 192 180 161 170 172 166 161 177 180 165 177 186 181 227 187 157 195 180 195 209 163 178 241 107 171 273 331 329 302 19 93 177 237 31 71 107 71 56 155 166 149 159 171 186 225 265 295 304 273 230 204 186 205 205 187 185 193 197 198 194 196 198 196 199 189
162 175 278 200 199 199 189 183 175 185 217 205 209 217 167 161 224 220 176 134 90 163 186 192 170 151 160 156 152 169 176 177 169 179 198 178 195 213 185 161 144 146 169 162 178 177 88 169 235 305 323 192 183 208 192 185 171 135 149 181 230 132 134 199 214 134 141 179 215 268 284 266 251 197 188 217 208 181 183 186 190 198 199 203 204 198 193 183
143 198 253 178 184 183 175 172 181 195 204 212 204 189 163 168 173 171 32 73 94 34 109 160 162 154 158 149 174 180 149 158 173 173 211 199 178 212 208 151 150 153 116 126 183 193 156 161 184 233 236 192 228 251 206 195 182 164 182 196 186 164 131 197 250 208 140 172 181 209 261 265 260 206 207 236 207 182 183 180 182 197 201 204 208 198 189 189
159 199 176 172 178 172 163 178 215 177 198 219 191 149 131 144 154 165 122 71 93 93 67 94 130 146 165 159 172 168 143 154 182 178 210 209 192 200 190 138 140 139 119 134 204 194 140 120 139 210 219 216 254 278 172 190 160 137 191 201 162 152 139 185 234 226 147 216 158 148 263 267 265 273 256 248 209 179 178 177 181 197 202 202 204 195 196 206
172 194 104 168 179 172 164 207 198 178 216 201 137 127 135 135 161 167 165 155 152 141 118 148 176 182 190 163 144 164 165 163 172 178 203 210 212 219 170 152 144 117 111 146 198 168 115 111 138 270 304 314 314 332 56 75 77 110 242 156 140 175 169 204 229 166 140 222 158 138 256 252 304 326 320 302 166 153 168 181 184 193 199 199 199 196 201 206
131 130 53 183 193 190 190 210 193 199 209 147 125 202 145 90 177 172 177 188 175 148 158 184 189 186 184 144 141 172 186 180 171 191 200 190 209 329 63 184 183 139 133 175 183 174 175 157 137 175 290 333 339 337 354 344 295 201 238 216 177 169 115 98 136 105 185 211 155 189 248 242 291 333 27 51 100 145 179 193 188 192 198 200 203 205 205 199
121 118 21 213 214 218 227 211 193 202 202 192 200 202 193 226 211 194 185 183 173 155 162 179 161 147 148 143 120 151 192 196 180 192 198 195 232 1 8 311 263 204 225 184 140 147 163 171 153 173 216 229 224 214 221 237 212 195 221 223 216 188 161 153 132 154 228 199 158 214 250 265 312 328 19 43 118 169 206 211 210 221 211 206 210 209 203 194
131 119 90 48 290 254 256 23 129 192 196 198 206 203 201 209 251 252 187 184 186 157 134 80 115 121 158 165 145 169 210 217 181 167 180 193 229 311 346 347 2 212 191 104 102 102 106 181 201 205 226 234 217 215 209 149 152 196 215 209 208 196 177 155 129 181 218 205 214 232 222 217 277 250 232 242 194 197 216 206 213 234 227 221 221 214 204 202
127 139 158 151 327 221 240 258 185 183 179 188 199 202 202 204 204 161 196 201 180 153 126 44 134 158 187 171 166 190 201 201 189 170 168 177 206 305 314 72 65 36 113 114 127 117 116 211 213 211 232 235 185 203 205 156 186 201 207 214 209 189 164 159 183 209 191 199 242 234 147 185 246 225 203 218 211 208 219 213 214 223 222 216 207 202 206 210
99 142 177 167 96 204 225 218 181 175 144 165 190 21 209 209 200 184 191 194 155 162 169 222 192 193 187 167 167 184 178 185 199 183 160 160 158 127 345 80 102 359 75 113 157 117 147 224 205 190 221 210 166 188 162 160 208 198 205 221 207 181 166 172 208 218 190 206 252 239 161 207 239 219 199 214 212 201 208 214 215 215 208 193 188 200 211 212
90 70 309 352 42 213 227 172 137 176 201 170 183 298 229 218 211 198 141 124 161 199 188 205 219 204 189 174 170 186 185 182 203 203 182 178 171 155 158 242 235 90 98 127 183 117 170 216 160 161 206 190 185 220 136 158 218 230 237 237 203 173 176 190 219 225 202 233 264 261 229 235 241 216 206 219 213 201 216 219 201 194 199 197 201 212 218 213
119 166 139 74 44 293 259 137 137 185 213 199 219 225 194 203 222 235 155 155 181 208 189 211 224 195 182 189 191 214 214 191 202 210 177 167 193 187 195 202 164 117 117 153 183 253 205 191 104 127 198 239 267 28 90 137 221 239 254 254 209 159 194 218 229 219 185 245 250 255 263 264 257 223 199 215 211 212 244 244 219 212 213 207 209 217 221 217
81 52 96 124 181 186 168 168 159 181 205 200 213 207 175 209 216 211 230 207 196 196 188 209 223 195 172 198 207 227 229 205 210 216 178 174 196 194 209 201 158 155 170 167 166 191 189 187 63 99 200 240 197 134 124 76 43 265 261 251 210 185 219 232 220 191 208 229 237 247 257 259 259 193 160 209 214 213 238 243 237 234 215 201 211 217 217 215
94 39 47 103 178 184 175 185 173 185 208 203 205 196 192 217 210 183 202 243 210 209 199 202 213 200 185 210 220 229 225 172 182 222 159 160 158 115 102 110 127 151 168 163 150 144 162 159 115 147 204 225 105 128 119 70 1 265 255 225 193 204 232 241 233 219 215 207 205 222 235 248 260 115 184 232 224 215 231 234 233 236 217 202 213 215 212 214